Kingston Norman Rogers Airport
CYGK : now visible

Airfield :











YOU CAN JOIN US ON...

 
LOGIN :

Register | Disclaimer

   EN    FR    IT 

 









Legend :    VFR   Marginal VFR   IFR   Intensive IFR   Very Intensive IFR
Visi :
Ceiling :
>= 8 km
>= 3000ft
5 to 8 km
1000 to 3000 ft
1500m to 5 km
500 to 1000 ft
800 to 1500m
200 to 500 ft
< 800m
< 200 ft
Symbols :   Thunderstorms  Fog  Heavy snow  Heavy precipitations  Wind > 20 kt






- Airport Elevation : 305 ft
- IATA code : YGK


CYGK - Kingston Norman Rogers

CURRENT METAR :
  • 202200Z 16007KT 15SM FEW030 SCT220 21/15 A2971 RMK CU1CI3 CU TR SLP063 DENSITY ALT 1300FT

EXPIRED METARs :
  • 202100Z 19010KT 15SM FEW030 SCT240 20/16 A2974 RMK CU1CI3 SLP072 DENSITY ALT 1200FT
  • 202000Z 18007KT 15SM FEW030 SCT240 20/16 A2975 RMK CU1CI3 SLP077 DENSITY ALT 1200FT

TAF TAF CYGK
Valid from the 20 at 20:00 until the 21 at 03:00 UTC


201938Z 2020/2103 18008KT P6SM FEW030 SCT240 RMK NXT FCST WILL BE ISSUED AT 211145Z
CZYZ FIR / North America



MET'MAP, your aeronautical weather chart ! - Copyright ORBIFLY December 2007 - Disclaimer

ORBIFLY MET'MAP TEAM :

Programming & Development : Alexandra Zaïnal
Concept & original design : Baudouin d'Aumeries
Assistance for programming : Marc-Olivier Méhu
Technical & hardware support : Manuel Goepfert

Contact : metmap@orbifly.com




SOURCES & CREDITS :

   NOAA       Earth
Advisory